Ontario, OR

4:18 PM MST on December 18, 2017 (GMT -0700)
Ontario Municipal

Weather History for KONO - January, 2013

Change the Weather History Date:

Friday, January 25, 2013

  Actual Average Record
Temperature  
Mean Temperature 31 °F 28 °F  
Max Temperature 34 °F 36 °F 59 °F (1953)
Min Temperature 27 °F 20 °F -21 °F (1949)
Degree Days  
Heating Degree Days 34 37  
Month to date heating degree days 1333 946  
Since 1 July heating degree days 3530 3527  
Cooling Degree Days 0 0  
Month to date cooling degree days 0 0  
Year to date cooling degree days 0 0  
Moisture  
Dew Point 28 °F    
Average Humidity 87    
Maximum Humidity 92    
Minimum Humidity 82    
Precipitation  
Precipitation 0.09 in 0.03 in 0.59 in (1969)
Month to date precipitation 0.49 1.01  
Year to date precipitation 0.49 1.01  
Sea Level Pressure  
Sea Level Pressure 30.20 in    
Wind  
Wind Speed 2 mph (SW)    
Max Wind Speed 20 mph    
Max Gust Speed 24 mph    
Visibility 1 miles    
Events Rain    
T = Trace of Precipitation, MM = Missing Value Source: NWS Daily Summary

Daily Weather History Graph

Daily Weather History Graph

Search for Another Location

Airport or City:

Trip Planner

Search our weather history database for the weather conditions in past years. The results will help you decide how hot, cold, wet, or windy it might be!

Date:

Astronomy

Jan. 25, 2013 Rise Set
Actual Time 8:12 AM MST 5:49 PM MST
Civil Twilight 7:40 AM MST 6:20 PM MST
Nautical Twilight 7:05 AM MST 6:55 PM MST
Astronomical Twilight 6:31 AM MST 7:29 PM MST
Moon 4:51 PM MST (1/25) 6:55 AM MST (1/25)
Length of Visible Light 10h 39m
Length of Day
9h 37m
Waxing Gibbous, 98% of the Moon is Illuminated
Jan 25
Waxing Gibbous
Jan 26
Full
Feb 3
Last Quarter
Feb 10
New
Feb 17
First Quarter

Hourly Weather History & Observations

Time (MST) Temp. Windchill Dew Point Humidity Pressure Visibility Wind Dir Wind Speed Gust Speed Precip Events Conditions
12:53 AM 28.0 °F - 25.0 °F 88% 30.40 in 2.5 mi Calm Calm - N/A   Overcast
1:11 AM 28.4 °F - 24.8 °F 86% 30.32 in 2.0 mi Calm Calm - N/A   Overcast
1:53 AM 28.0 °F - 25.0 °F 88% 30.40 in 2.0 mi Calm Calm - N/A   Overcast
2:53 AM 28.0 °F - 25.0 °F 88% 30.39 in 2.0 mi Calm Calm - N/A   Overcast
3:53 AM 27.0 °F 23.0 °F 25.0 °F 92% 30.38 in 1.8 mi WSW 3.5 mph - N/A   Overcast
4:16 AM 26.6 °F - 24.8 °F 93% 30.29 in 1.8 mi Calm Calm - N/A   Overcast
4:53 AM 27.0 °F 23.0 °F 24.1 °F 89% 30.37 in 1.5 mi WSW 3.5 mph - N/A   Overcast
5:53 AM 27.0 °F 21.6 °F 24.1 °F 89% 30.36 in 1.8 mi WSW 4.6 mph - N/A   Overcast
6:26 AM 26.6 °F - 24.8 °F 93% 30.28 in 1.8 mi Calm Calm - N/A   Overcast
6:53 AM 27.0 °F - 24.1 °F 89% 30.36 in 1.8 mi Calm Calm - N/A   Overcast
7:12 AM 28.4 °F - 24.8 °F 86% 30.28 in 1.8 mi Calm Calm - N/A   Overcast
7:48 AM 28.4 °F - 24.8 °F 86% 30.28 in 1.8 mi Calm Calm - N/A   Overcast
7:53 AM 28.0 °F - 25.0 °F 88% 30.36 in 1.8 mi Calm Calm - N/A   Overcast
8:25 AM 28.4 °F - 24.8 °F 86% 30.28 in 1.0 mi Calm Calm - N/A   Overcast
8:53 AM 28.0 °F 24.2 °F 25.0 °F 88% 30.35 in 1.0 mi SW 3.5 mph - N/A   Overcast
9:21 AM 28.4 °F 24.6 °F 24.8 °F 86% 30.27 in 1.2 mi SW 3.5 mph - 0.00 in   Overcast
9:30 AM 28.4 °F - 24.8 °F 86% 30.27 in 1.2 mi Calm Calm - 0.00 in   Overcast
9:53 AM 28.9 °F - 25.0 °F 85% 30.34 in 1.2 mi Calm Calm - 0.00 in   Overcast
10:45 AM 30.2 °F 26.7 °F 26.6 °F 86% 30.27 in 1.2 mi WSW 3.5 mph - 0.01 in   Overcast
10:53 AM 30.0 °F 26.5 °F 26.1 °F 85% 30.34 in 1.2 mi WSW 3.5 mph - 0.01 in   Overcast
11:53 AM 30.9 °F 27.5 °F 27.0 °F 85% 30.31 in 1.5 mi West 3.5 mph - N/A   Overcast
12:28 PM 32.0 °F - 26.6 °F 80% 30.22 in 1.8 mi Calm Calm - N/A   Haze
12:53 PM 33.1 °F - 28.0 °F 82% 30.27 in 1.8 mi Calm Calm - N/A   Haze
1:34 PM 33.8 °F - 28.4 °F 81% 30.18 in 1.8 mi Calm Calm - N/A   Haze
1:53 PM 34.0 °F - 28.0 °F 79% 30.24 in 1.8 mi Calm Calm - N/A   Haze
2:53 PM 34.0 °F - 28.0 °F 79% 30.22 in 1.8 mi Calm Calm - N/A   Haze
3:53 PM 33.1 °F - 28.0 °F 82% 30.20 in 1.5 mi Calm Calm - N/A   Haze
4:25 PM 33.8 °F - 28.4 °F 81% 30.12 in 1.5 mi Calm Calm - 0.00 in Rain Light Rain
4:44 PM 33.8 °F - 28.4 °F 81% 30.12 in 1.2 mi Calm Calm - 0.00 in Rain Light Rain
4:53 PM 34.0 °F - 28.9 °F 82% 30.18 in 1.5 mi Calm Calm - 0.00 in Rain Light Rain
5:37 PM 33.8 °F 30.8 °F 30.2 °F 87% 30.12 in 1.0 mi WSW 3.5 mph - 0.01 in Rain Light Rain
5:48 PM 33.8 °F - 30.2 °F 87% 30.12 in 1.5 mi Calm Calm - 0.02 in Rain Light Rain
5:53 PM 33.1 °F - 30.0 °F 89% 30.19 in 1.8 mi Calm Calm - 0.02 in Rain Light Rain
6:10 PM 33.8 °F - 30.2 °F 87% 30.11 in 1.5 mi Calm Calm - 0.01 in Rain Light Rain
6:53 PM 33.1 °F - 30.0 °F 89% 30.18 in 1.2 mi Calm Calm - 0.02 in Rain Light Rain
7:02 PM 33.8 °F - 30.2 °F 87% 30.12 in 1.2 mi Calm Calm - 0.00 in Rain Light Rain
7:10 PM 33.8 °F - 30.2 °F 87% 30.12 in 1.2 mi Calm Calm - 0.01 in Rain Light Rain
7:37 PM 33.8 °F - 30.2 °F 87% 30.12 in 1.2 mi Calm Calm - 0.02 in Rain Light Rain
7:48 PM 32.0 °F - 30.2 °F 93% 30.11 in 1.0 mi Calm Calm - 0.02 in Rain Light Rain
7:53 PM 32.0 °F - 30.0 °F 92% 30.18 in 1.0 mi Calm Calm - 0.03 in   Overcast
8:08 PM 32.0 °F 27.5 °F 30.2 °F 93% 30.10 in 1.2 mi SE 4.6 mph - 0.00 in   Overcast
8:27 PM 32.0 °F 25.6 °F 30.2 °F 93% 30.07 in 1.0 mi ESE 6.9 mph - 0.01 in   Overcast
8:41 PM 32.0 °F 23.0 °F 30.2 °F 93% 30.03 in 0.8 mi ESE 11.5 mph - 0.01 in   Overcast
8:50 PM 32.0 °F 20.1 °F 30.2 °F 93% 29.99 in 1.0 mi East 19.6 mph 24.2 mph 0.01 in   Mist
8:53 PM 32.0 °F 20.8 °F 30.0 °F 92% 30.07 in 1.0 mi East 17.3 mph 24.2 mph 0.01 in   Mist
8:58 PM 33.8 °F 30.8 °F 30.2 °F 87% 30.05 in 1.0 mi Variable 3.5 mph 24.2 mph N/A   Overcast
9:01 PM 33.8 °F 27.0 °F 30.2 °F 87% 30.07 in 1.2 mi West 8.1 mph - N/A   Overcast
9:09 PM 33.8 °F 27.0 °F 30.2 °F 87% 30.08 in 1.2 mi WSW 8.1 mph - N/A   Overcast
9:49 PM 33.8 °F 30.8 °F 30.2 °F 87% 30.10 in 1.5 mi West 3.5 mph - N/A   Overcast
9:53 PM 33.1 °F - 30.9 °F 92% 30.15 in 1.5 mi Calm Calm - N/A   Overcast
10:19 PM 33.8 °F - 30.2 °F 87% 30.08 in 1.0 mi Calm Calm - N/A   Overcast
10:34 PM 33.8 °F 29.6 °F 30.2 °F 87% 30.08 in 1.2 mi East 4.6 mph - N/A   Overcast
10:53 PM 33.1 °F 30.0 °F 30.9 °F 92% 30.14 in 1.0 mi NE 3.5 mph - N/A   Overcast
11:16 PM 33.8 °F - 30.2 °F 87% 30.07 in 1.2 mi Calm Calm - N/A   Overcast
11:26 PM 33.8 °F - 30.2 °F 87% 30.07 in 1.0 mi Calm Calm - N/A   Overcast
11:34 PM 33.8 °F 30.8 °F 30.2 °F 87% 30.07 in 1.0 mi East 3.5 mph - N/A   Overcast
11:53 PM 33.1 °F - 30.9 °F 92% 30.14 in 1.0 mi Calm Calm - N/A   Overcast